Regional Weather Roundup
Issued by NWS

Home | Current Version | Previous Version | Graphics & Text | Print | Product List | Glossary On
Versions: 1 2 3 4 5 6 7 8 9 10 11 12 13 14 15 16 17 18 19 20 21 22 23 24 25 26 27 28 29 30 31 32 33 34 35 36 37 38 39 40 41 42 43 44 45 46 47 48 49 50
000
ASUS43 KIND 150559
RWRIN

WEATHER ROUNDUP FOR INDIANA
NATIONAL WEATHER SERVICE INDIANAPOLIS IN
200 AM EDT MON SEP 15 2014

NOTE: "FAIR" INDICATES FEW OR NO CLOUDS BELOW 12,000 FEET WITH NO
SIGNIFICANT WEATHER AND/OR OBSTRUCTIONS TO VISIBILITY.

* - STATION DOES NOT REPORT WEATHER SUCH AS PRECIPITATION OR FOG.

+ - STATION NOT QUALITY CONTROLLED BY THE NATIONAL WEATHER SERVICE.
    USE DATA WITH CAUTION...ESPECIALLY DEWPOINT AND RELATIVE
    HUMIDITY OBSERVATIONS.

INZ001>003-010>013-019-020-150700-
NORTHWEST INDIANA

CITY           SKY/WX    TMP DP  RH WIND       PRES   REMARKS
GARY /AIRPORT/ CLEAR     47  46  95 CALM      30.20S
KNOX *+        CLEAR     46  44  93 CALM      30.19S
VALPARAISO     CLEAR     46  45  96 CALM      30.20S
6HR MIN TEMP:  45; 6HR MAX TEMP:  59; 6HR PCP: TRACE;


$$

LMZ046-743>745-150700-
SOUTHERN LAKE MICHIGAN

STATION/POSITION TIME  TEMP WIND        PRES
                       AIR  DIR/SP/G
                 (UTC) (F)  (DEG/KT/KT) (MB)
MICHIGAN CITY    0500   56  140/  7/  9   N/A

$$

INZ004-005-014>016-021>024-150700-
NORTH CENTRAL INDIANA

CITY           SKY/WX    TMP DP  RH WIND       PRES   REMARKS
GOSHEN         CLEAR     47  44  90 CALM      30.20S
6HR MIN TEMP:  46; 6HR MAX TEMP:  60;

SOUTH BEND     CLEAR     48  44  86 CALM      30.20S
6HR MIN TEMP:  47; 6HR MAX TEMP:  61;

WARSAW +       CLEAR     45  45 100 CALM      30.21R

$$

INZ006>009-017-018-025>027-150700-
NORTHEAST INDIANA

CITY           SKY/WX    TMP DP  RH WIND       PRES   REMARKS
ANGOLA *+      CLEAR     45  45 100 CALM      30.21S
FORT WAYNE     PTCLDY    48  46  93 CALM      30.21S
6HR MIN TEMP:  47; 6HR MAX TEMP:  58;


$$

INZ028-029-035-036-043>045-051>053-150700-
WEST CENTRAL INDIANA

CITY           SKY/WX    TMP DP  RH WIND       PRES   REMARKS
GREENCASTLE +  CLEAR     46  46 100 CALM      30.20F
LAFAYETTE      CLEAR     47  46  97 CALM      30.20R
6HR MIN TEMP:  47; 6HR MAX TEMP:  59;

TERRE HAUTE    CLEAR     46  45  96 CALM      30.20S
6HR MIN TEMP:  46; 6HR MAX TEMP:  60;


$$

INZ030>032-037>040-046>048-054>057-064-065-150700-
CENTRAL INDIANA

CITY           SKY/WX    TMP DP  RH WIND       PRES   REMARKS
FRANKFORT +    CLEAR    N/A N/A N/A CALM      30.22R
INDIANAPOLIS   CLEAR     52  47  83 CALM      30.19S
6HR MIN TEMP:  50; 6HR MAX TEMP:  64;

-EAGLE CREEK   CLEAR     51  48  89 CALM      30.19F
6HR MIN TEMP:  51; 6HR MAX TEMP:  63;

KOKOMO *+      CLEAR     46  43  87 CALM      30.21S
MT COMFORT *+  CLEAR     46 N/A N/A CALM      30.21S
SHELBYVILLE    CLEAR     49  46  90 E3        30.20F
6HR MIN TEMP:  49; 6HR MAX TEMP:  64; 6HR PCP: TRACE;

ZIONSVILLE +   CLEAR     46  43  90 CALM      30.21F FOG
6HR MIN TEMP:  46; 6HR MAX TEMP:  59;


$$

INZ033-034-041-042-049-050-058-059-150700-
EAST CENTRAL INDIANA

CITY           SKY/WX    TMP DP  RH WIND       PRES   REMARKS
MUNCIE         CLEAR     48  45  89 CALM      30.21S
6HR MIN TEMP:  47; 6HR MAX TEMP:  60;


$$

INZ060-061-067>069-081>083-085>088-150700-
SOUTHWEST INDIANA

CITY           SKY/WX    TMP DP  RH WIND       PRES   REMARKS
EVANSVILLE     CLEAR     52  49  89 CALM      30.20S
6HR MIN TEMP:  52; 6HR MAX TEMP:  65;


$$

INZ062-063-066-070>080-084-089>092-150700-
SOUTH CENTRAL AND SOUTHEAST INDIANA

CITY           SKY/WX    TMP DP  RH WIND       PRES   REMARKS
BLOOMINGTON    CLEAR     46  45  96 CALM      30.20F FOG
6HR MIN TEMP:  46; 6HR MAX TEMP:  57;


$$




USA.gov is the U.S. government's official web portal to all federal, state and local government web resources and services.